STARLINK-33787, 63519

Orbit data source: Space-Track

STARLINK-33787, 63519 is a payload satellite owned by SpaceX/Seattle (US) in LEO that was launched on Mon, 07 Apr 2025 UTC via an FALCON 9 launch vehicle from the Air Force Western Test Range (AFWTR). Payload-class satellites include a variety of spacecraft equipped with specific instruments for various scientific and technological missions. These include communications satellites like Starlink; space stations such as the ISS; scientific satellites like the Hubble; Earth observation satellites from companies like Planet Labs, Umbra, and HawkEye 360; GPS; miniature CubeSats for education and research; and military/defense satellites.

Loading next visibility...
Identifier
63519, 2025-071AC
Orbit
LEO
Country
Flag of USUS
Related business
Manufacturer
SpaceX/Seattle
Mission
Operational Commercial Communications
Bus & Motor
STARLINK V2MO, Unknown motor
Mass
575 kg wet, ~530 kg dry
Launch date (UTC)
2025-04-07 (5 months ago)
Launch vehicle
FALCON 9
Launch site
Air Force Western Test Range (AFWTR)
Object type
Payload
Rocket body
Debris
Shape & HBR
Box + 1 Pan, 14.5 m
Radar Cross Section
41.120 m², Large (>1 m²)

Expand to show TLE details & history
Last TLE update: 20 hours ago

TLE from 20 hours ago
0 STARLINK-33787
1 63519U 25071AC  25257.37684339  .00028849  00000-0  98147-3 0  9996
2 63519  53.1556 241.1114 0000934  90.2621 269.8486 15.30230089 25372
Epoch: 2025-09-14T09:02Z
TLE epoch observation values (Epoch: 2025-09-14T09:02:39.268Z)
Latitude
-0.0001°
Longitude
111.85098°
Altitude
476.026 km
Speed
7.629 km/s
True Right ascension
16h 04m 26s
True Declination
0° 00' 00"
Sunlit
Object was in daylight at epoch
Visualization orbit readout
Latitude
Unknown
Longitude
Unknown
Altitude
Unknown
Speed
Unknown
Apparent Right ascension
Unknown
Apparent Declination
Unknown
Sunlit
N/A
Visualization observer readout
Local Sidereal Time
22:06:41
Azimuth
Unknown
Elevation
Unknown
Doppler factor
Unknown
Orbital elements
Apogee altitude
476.022 km
Perigee altitude
474.742 km
Semi-major axis
6,853.519 km
Eccentricity
0.00009
Inclination
53.1556°
RAAN
241.1114°
Arg. of periapsis
90.2621°
True anomaly
269.8379°
Mean anomaly
269.8486°
Eccentric anomaly
269.84325°
Mean motion
3.82536 °/min
Orbital period
94.11 mins
BSTAR
0.00098147
Loading maneuver chart data...
Computing Atmospheric mass density...
Loading historical data...
Loading historical data...
Loading historical data...
Loading historical data...
Loading historical data...
Loading historical data...
Loading historical data...

Documentation

Showing up to 5 results
|